TimeMST,TemperatureF,Dew PointF,Humidity,Sea Level PressureIn,VisibilityMPH,Wind Direction,Wind SpeedMPH,Gust SpeedMPH,PrecipitationIn,Events,Conditions,WindDirDegrees,DateUTC
12:53 AM,39.0,10.9,32,30.16,10.0,WNW,27.6,34.5,N/A,,Clear,300,2013-01-19 07:53:00
1:53 AM,39.0,10.0,30,30.18,10.0,WNW,28.8,36.8,N/A,,Clear,300,2013-01-19 08:53:00
2:53 AM,37.0,9.0,31,30.20,10.0,WNW,27.6,38.0,N/A,,Clear,300,2013-01-19 09:53:00
3:53 AM,36.0,10.0,34,30.17,10.0,WNW,32.2,39.1,N/A,,Clear,300,2013-01-19 10:53:00
4:53 AM,34.0,10.0,37,30.19,10.0,NW,25.3,-,N/A,,Clear,310,2013-01-19 11:53:00
5:53 AM,32.0,9.0,38,30.17,10.0,West,9.2,-,N/A,,Clear,260,2013-01-19 12:53:00
6:53 AM,28.0,7.0,41,30.22,10.0,West,5.8,-,N/A,,Clear,260,2013-01-19 13:53:00
7:53 AM,21.0,5.0,50,30.26,10.0,WSW,8.1,-,N/A,,Clear,250,2013-01-19 14:53:00
8:53 AM,23.0,6.1,48,30.31,10.0,SW,6.9,-,N/A,,Clear,230,2013-01-19 15:53:00
9:53 AM,25.0,10.0,53,30.30,10.0,SW,6.9,-,N/A,,Clear,220,2013-01-19 16:53:00
10:53 AM,30.9,10.9,43,30.27,10.0,Calm,Calm,-,N/A,,Clear,0,2013-01-19 17:53:00
11:53 AM,32.0,12.9,45,30.25,10.0,NW,5.8,-,N/A,,Clear,320,2013-01-19 18:53:00
12:53 PM,34.0,16.0,48,30.22,10.0,Calm,Calm,-,N/A,,Clear,0,2013-01-19 19:53:00
1:53 PM,35.1,18.0,50,30.21,10.0,South,5.8,-,N/A,,Clear,170,2013-01-19 20:53:00
2:53 PM,34.0,18.0,52,30.21,10.0,SE,5.8,-,N/A,,Clear,130,2013-01-19 21:53:00
3:53 PM,30.0,15.1,54,30.25,10.0,Calm,Calm,-,N/A,,Clear,0,2013-01-19 22:53:00
4:53 PM,27.0,14.0,58,30.27,10.0,NE,5.8,-,N/A,,Clear,50,2013-01-19 23:53:00
5:53 PM,28.9,10.0,45,30.26,10.0,East,5.8,-,N/A,,Clear,90,2013-01-20 00:53:00
6:53 PM,28.0,10.9,49,30.28,10.0,South,5.8,-,N/A,,Clear,190,2013-01-20 01:53:00
7:53 PM,28.0,12.9,53,30.29,10.0,South,5.8,-,N/A,,Clear,190,2013-01-20 02:53:00
8:53 PM,25.0,12.0,58,30.29,10.0,WSW,5.8,-,N/A,,Clear,240,2013-01-20 03:53:00
9:53 PM,28.0,10.9,49,30.26,10.0,WSW,12.7,-,N/A,,Clear,240,2013-01-20 04:53:00
10:53 PM,24.1,10.0,55,30.26,10.0,West,4.6,-,N/A,,Clear,280,2013-01-20 05:53:00
11:53 PM,24.1,9.0,53,30.26,10.0,South,8.1,-,N/A,,Clear,190,2013-01-20 06:53:00